[[{"header":{"parameterUnit":"m.s-1","parameterCategory":2,"la1":30.2991,"la2":30.254,"lo1":-89.0895,"lo2":-89.0444,"dy":0.0017,"dx":0.0017,"nx":28,"ny":28,"refTime":"2024-12-31T09:00:00:Z","depth":"0","parameterNumber":2,"parameterNumberName":"U-component_of_CURRENTS"},"data":[0,0,0,0,0,0,0,0,0,0,0,0,0,0,0,0,0,0,0,0,0,0,0,0,0,0,0,0,0,0,0,0,0,0,0,0,0,0,0,0,0,0,0,0,0,0,0,0,0,0,0,0,0,0,0,0,0,0,0.3359,0.336,0,0.3401,0.3401,0.3401,0.3417,0.3417,0.3417,0.3417,0.3419,0.3419,0.3419,0,0,0,0,0,0,0,0,0,0,0,0,0,0.33,0.33,0.3359,0.336,0.3361,0.3401,0.3401,0.3401,0.3417,0.3417,0.3417,0.3418,0.3419,0.3419,0.3419,0,0,0,0,0,0,0,0,0,0,0,0,0,0.3328,0.3301,0.3359,0.3377,0.3379,0.3401,0.3401,0.3401,0.3416,0.3417,0.3417,0.3418,0.3419,0.3419,0.3419,0.3408,0,0,0.3418,0.3418,0,0,0,0,0,0,0,0,0.3326,0.3329,0.3373,0.3376,0.3378,0.3408,0.3381,0.3403,0.3416,0.3397,0.3417,0.3418,0.3415,0.3415,0.3416,0.3408,0.3408,0.3418,0.3418,0.3417,0.3417,0,0,0,0,0,0,0,0.3324,0.3328,0.3371,0.3374,0.3377,0.3386,0.339,0.3385,0.3399,0.3399,0.3401,0.3413,0.3415,0.3416,0.3416,0.3408,0.3418,0.3417,0.3417,0.3417,0.3456,0.3457,0,0,0,0,0,0,0.3327,0.3326,0.337,0.3373,0.3358,0.3387,0.3391,0.3394,0.34,0.3403,0.3413,0.3414,0.3416,0.3416,0.3416,0.346,0.3417,0.3417,0.3417,0.3455,0.3457,0.3458,0,0,0,0,0,0,0.3326,0.333,0.3368,0.3354,0.336,0.3388,0.3391,0.3395,0.34,0.3412,0.3413,0.3415,0.3416,0.3416,0.3436,0.3458,0.3417,0.3417,0.3454,0.3455,0.3457,0.3511,0,0,0,0,0,0,0.3324,0.3329,0.3324,0.3354,0.3361,0.3386,0.3392,0.3396,0.3409,0.341,0.3414,0.3414,0.3417,0.3437,0.3436,0.3456,0.3416,0.3452,0.3454,0.3457,0.3508,0.3515,0.352,0,0,0,0,0,0.3321,0.3307,0.3323,0.3328,0.3355,0.3386,0.339,0.3408,0.3408,0.3412,0.3429,0.3414,0.3451,0.3438,0.3436,0.3457,0.3451,0.3454,0.3456,0.3505,0.3513,0.352,0,0,0,0,0,0,0.3262,0.331,0.3326,0.3323,0.3359,0.3391,0.3392,0.3407,0.3421,0.3423,0.3428,0.343,0.346,0.3448,0.3433,0.3476,0.3449,0.3451,0.3486,0.3494,0.35,0.3509,0.3416,0,0,0,0,0,0.3253,0.3262,0.3311,0.3307,0.3327,0.336,0.3371,0.3392,0.3415,0.3421,0.343,0.3443,0.3468,0.3472,0.3487,0.35,0.3506,0.3513,0.352,0.3525,0.3533,0.3586,0.3599,0.3467,0.3467,0.3467,0,0,0.3224,0.3255,0.3255,0.3298,0.3322,0.3358,0.3366,0.339,0.3421,0.3418,0.3447,0.3464,0.3479,0.3512,0.3522,0.3503,0.3561,0.3529,0.3533,0.3538,0.3591,0.3604,0.3615,0.3469,0.3469,0.3468,0,0,0.3191,0.3207,0.3217,0.3255,0.3309,0.3342,0.3352,0.3397,0.3417,0.3451,0.3471,0.3508,0.3518,0.3553,0.3568,0.3612,0.3599,0.3608,0.364,0.3693,0.3704,0.3714,0.372,0.373,0.3604,0.3605,0.3605,0,0.3155,0.3187,0.3221,0.3255,0.3291,0.3339,0.3373,0.3402,0.3447,0.3477,0.3466,0.354,0.3545,0.3615,0.3634,0.3628,0.3639,0.361,0.3702,0.3712,0.3722,0.3725,0.3736,0.3607,0.3607,0.3607,0.3607,0,0.3152,0.3182,0.3191,0.3261,0.3297,0.3333,0.3398,0.3433,0.3463,0.3504,0.3573,0.3598,0.3645,0.3654,0.3655,0.3732,0.371,0.371,0.3684,0.3739,0.3738,0.3748,0.3612,0.3611,0.361,0.3609,0,0,0.3064,0.3171,0.3175,0.3216,0.3312,0.3337,0.3405,0.3487,0.3532,0.358,0.3642,0.3699,0.3721,0.374,0.3755,0.3795,0.3861,0.3778,0.3779,0.3784,0.3949,0.3911,0.3918,0.3882,0.3885,0.3887,0.3914,0,0.306,0.3118,0.3184,0.3245,0.3285,0.337,0.3427,0.3503,0.3567,0.3633,0.3695,0.3751,0.3752,0.3775,0.3826,0.3863,0.3894,0.3852,0.3894,0.3895,0.3857,0.3932,0.3844,0.386,0.3924,0.3926,0.3927,0,0.3046,0.3094,0.315,0.3256,0.3281,0.3322,0.3434,0.3494,0.3614,0.3664,0.3752,0.3799,0.3886,0.3863,0.3966,0.394,0.3948,0.3963,0.3965,0.3921,0.3878,0.382,0.3876,0.3828,0.3942,0.3941,0.394,0,0.2973,0.3072,0.3116,0.3151,0.3272,0.331,0.3374,0.3494,0.357,0.3683,0.375,0.3855,0.3913,0.3965,0.4013,0.3994,0.4106,0.408,0.4049,0.4044,0.3973,0.3958,0.3991,0.4143,0.4142,0.4142,0.4142,0,0.2951,0.2983,0.3077,0.3099,0.3154,0.3248,0.3323,0.341,0.3551,0.3631,0.3752,0.3837,0.3946,0.4029,0.4042,0.4089,0.4135,0.4072,0.4068,0.3985,0.3972,0.3929,0.3902,0.4143,0.4143,0.4143,0.4143,0,0.2872,0.2938,0.2989,0.3092,0.3121,0.315,0.3296,0.3358,0.3496,0.3607,0.365,0.3852,0.3954,0.4044,0.413,0.4127,0.4068,0.4155,0.4031,0.4012,0.3921,0.39,0.3759,0.3628,0.4123,0.4122,0.4122,0,0.2843,0.2858,0.295,0.2973,0.3019,0.3083,0.3138,0.33,0.3376,0.36,0.3646,0.382,0.3922,0.4067,0.4109,0.4147,0.4034,0.4052,0.4005,0.3924,0.3898,0.3735,0.3622,0.3917,0.3915,0.3914,0.3912,0,0.2783,0.2811,0.2849,0.2894,0.2939,0.2995,0.308,0.3144,0.3318,0.3434,0.3585,0.3698,0.3892,0.3942,0.403,0.4037,0.3893,0.4017,0.3984,0.3792,0.3566,0.3434,0.386,0.3897,0.3899,0.39,0.3901,0.3901,0.2724,0.2729,0.2773,0.2806,0.2853,0.2879,0.2884,0.2997,0.31,0.3241,0.3421,0.3556,0.3763,0.3912,0.3888,0.3861,0.3789,0.3778,0.3772,0.3621,0.3461,0.3835,0.3841,0.3842,0.3843,0.3844,0.3844,0,0.2638,0.2655,0.2687,0.2712,0.2708,0.2767,0.2824,0.2815,0.2864,0.3066,0.3188,0.3421,0.3539,0.3678,0.378,0.3669,0.3469,0.3569,0.3346,0.3253,0.3658,0.362,0.3516,0.3516,0.3516,0.3516,0.3516,0.3516,0.2595,0.2578,0.2593,0.255,0.256,0.2508,0.25,0.2524,0.2634,0.2776,0.293,0.3106,0.3489,0.3729,0.3702,0.3588,0.3298,0.316,0.3095,0.3456,0.3475,0.3493,0.3452,0.3315,0.3314,0.2559,0.2554,0.255]},{"header":{"parameterUnit":"m.s-1","parameterCategory":2,"la1":30.2991,"la2":30.254,"lo1":-89.0895,"lo2":-89.0444,"dy":0.0017,"dx":0.0017,"nx":28,"ny":28,"refTime":"2024-12-31T09:00:00:Z","depth":"0","parameterNumber":3,"parameterNumberName":"V-component_of_CURRENTS"},"data":[0,0,0,0,0,0,0,0,0,0,0,0,0,0,0,0,0,0,0,0,0,0,0,0,0,0,0,0,0,0,0,0,0,0,0,0,0,0,0,0,0,0,0,0,0,0,0,0,0,0,0,0,0,0,0,0,0,0,-0.0327,-0.0327,0,-0.0398,-0.0399,-0.0399,-0.0457,-0.0457,-0.0458,-0.0458,-0.056,-0.0562,-0.0564,0,0,0,0,0,0,0,0,0,0,0,0,0,-0.0278,-0.0279,-0.0327,-0.0328,-0.0328,-0.0398,-0.0399,-0.04,-0.0457,-0.0457,-0.0458,-0.0459,-0.0559,-0.0562,-0.0565,0,0,0,0,0,0,0,0,0,0,0,0,0,-0.0319,-0.0279,-0.0326,-0.0365,-0.037,-0.0398,-0.0399,-0.04,-0.0456,-0.0457,-0.0458,-0.0459,-0.0559,-0.0562,-0.0565,-0.0567,0,0,-0.0575,-0.0576,0,0,0,0,0,0,0,0,-0.0317,-0.0321,-0.0359,-0.0363,-0.0368,-0.042,-0.0419,-0.0457,-0.0456,-0.0423,-0.0458,-0.0459,-0.0515,-0.0522,-0.0533,-0.0572,-0.0576,-0.0575,-0.0577,-0.0578,-0.0579,0,0,0,0,0,0,0,-0.0314,-0.0318,-0.0355,-0.036,-0.0365,-0.0393,-0.0399,-0.0427,-0.0464,-0.0426,-0.043,-0.0438,-0.0518,-0.053,-0.0536,-0.0577,-0.0575,-0.0578,-0.058,-0.0581,-0.0644,-0.0644,0,0,0,0,0,0,-0.0302,-0.0315,-0.0352,-0.0357,-0.0344,-0.0392,-0.04,-0.0402,-0.0463,-0.0473,-0.0438,-0.0441,-0.0524,-0.0532,-0.054,-0.0546,-0.0578,-0.0581,-0.0583,-0.0644,-0.0644,-0.0644,0,0,0,0,0,0,-0.0301,-0.0305,-0.0349,-0.0338,-0.0346,-0.0392,-0.0394,-0.0403,-0.0413,-0.0471,-0.0482,-0.0439,-0.0525,-0.0535,-0.0567,-0.0551,-0.0583,-0.0586,-0.0645,-0.0644,-0.0644,-0.056,0,0,0,0,0,0,-0.0299,-0.0303,-0.0295,-0.0337,-0.0346,-0.0355,-0.0394,-0.0403,-0.0417,-0.0421,-0.0476,-0.0487,-0.0526,-0.0562,-0.057,-0.0556,-0.0588,-0.0645,-0.0645,-0.0644,-0.0563,-0.0556,-0.0551,0,0,0,0,0,-0.0297,-0.0274,-0.0294,-0.0299,-0.0335,-0.0354,-0.036,-0.0397,-0.0415,-0.0411,-0.0457,-0.0485,-0.0565,-0.0564,-0.0574,-0.056,-0.0645,-0.0645,-0.0644,-0.0565,-0.0558,-0.0551,0,0,0,0,0,0,-0.024,-0.0279,-0.0302,-0.0291,-0.0318,-0.0363,-0.0358,-0.0387,-0.0419,-0.0423,-0.0483,-0.0496,-0.052,-0.0552,-0.055,-0.0579,-0.0609,-0.061,-0.0546,-0.0539,-0.0533,-0.0503,-0.0591,0,0,0,0,0,-0.0225,-0.0225,-0.0267,-0.0258,-0.0267,-0.0312,-0.0323,-0.0348,-0.0385,-0.0399,-0.0441,-0.0486,-0.0524,-0.054,-0.0579,-0.0589,-0.0614,-0.0588,-0.0582,-0.0576,-0.056,-0.0599,-0.0594,-0.0642,-0.0642,-0.0642,0,0,-0.0201,-0.0222,-0.0222,-0.0247,-0.027,-0.0268,-0.032,-0.0327,-0.0328,-0.0405,-0.0414,-0.0467,-0.0524,-0.0543,-0.0556,-0.0567,-0.0573,-0.0576,-0.057,-0.0557,-0.0598,-0.0593,-0.0589,-0.0641,-0.0642,-0.0642,0,0,-0.0149,-0.017,-0.0153,-0.0169,-0.0199,-0.0226,-0.0224,-0.0266,-0.0286,-0.0308,-0.0367,-0.0407,-0.0459,-0.0497,-0.0524,-0.0506,-0.0545,-0.052,-0.046,-0.0498,-0.0494,-0.0491,-0.0499,-0.0497,-0.0512,-0.0511,-0.0511,0,-0.0116,-0.0104,-0.0148,-0.0135,-0.0138,-0.0201,-0.0178,-0.0205,-0.0254,-0.0265,-0.0299,-0.0382,-0.0435,-0.046,-0.046,-0.0491,-0.051,-0.048,-0.0488,-0.0486,-0.0484,-0.0494,-0.0493,-0.0507,-0.0508,-0.0508,-0.0509,0,-0.0057,-0.0047,-0.0033,-0.0042,-0.0049,-0.0038,-0.0083,-0.0095,-0.0132,-0.0169,-0.0206,-0.0287,-0.0332,-0.0361,-0.0407,-0.0418,-0.0435,-0.0479,-0.05,-0.0474,-0.0486,-0.0486,-0.0501,-0.0503,-0.0504,-0.0505,0,0,0.0016,0.001,0.0016,0.003,0.0003,0.0009,0.0008,-0.0009,0.0,-0.0069,-0.0065,-0.0155,-0.0204,-0.0238,-0.0305,-0.0344,-0.0354,-0.0397,-0.0401,-0.0393,-0.0413,-0.0426,-0.0428,-0.0402,-0.0402,-0.0402,-0.042,0,0.0077,0.0128,0.0102,0.0153,0.0176,0.0127,0.0138,0.0111,0.0072,0.0058,-0.0036,-0.0066,-0.0155,-0.0176,-0.0229,-0.0323,-0.0354,-0.0343,-0.045,-0.0452,-0.0459,-0.043,-0.0417,-0.0432,-0.0421,-0.0421,-0.0421,0,0.0143,0.0168,0.0228,0.0254,0.0261,0.0277,0.0287,0.0285,0.0238,0.0205,0.0149,0.0078,0.0012,-0.0073,-0.0203,-0.0191,-0.0286,-0.0366,-0.0369,-0.0409,-0.0467,-0.0463,-0.0435,-0.063,-0.0423,-0.0423,-0.0423,0,0.0218,0.0259,0.0313,0.0321,0.0335,0.0354,0.0356,0.033,0.0353,0.0296,0.0308,0.0201,0.0168,0.0026,-0.014,-0.0169,-0.028,-0.0342,-0.0439,-0.044,-0.0463,-0.0466,-0.0627,-0.0428,-0.0428,-0.0428,-0.0428,0,0.0292,0.0337,0.0354,0.0382,0.0458,0.0431,0.0497,0.0474,0.0476,0.052,0.0391,0.041,0.0189,0.0095,-0.008,-0.0245,-0.0233,-0.041,-0.0446,-0.0432,-0.0432,-0.0633,-0.0765,-0.0428,-0.0428,-0.0428,-0.0428,0,0.0362,0.037,0.0437,0.0472,0.0492,0.0541,0.0601,0.065,0.0624,0.0679,0.0673,0.0584,0.0458,0.0242,0.0027,-0.0142,-0.0436,-0.0386,-0.034,-0.037,-0.0649,-0.0776,-0.0981,-0.1063,-0.0485,-0.0485,-0.0485,0,0.04,0.0442,0.0511,0.0563,0.0581,0.0651,0.0711,0.0718,0.0781,0.0796,0.0843,0.0747,0.0704,0.0393,0.0069,-0.0217,-0.0435,-0.0403,-0.047,-0.0647,-0.0816,-0.0915,-0.0976,-0.0459,-0.0459,-0.0459,-0.046,0,0.0478,0.0498,0.0556,0.0664,0.0736,0.083,0.0912,0.0992,0.1011,0.1069,0.1126,0.1097,0.0797,0.0524,0.0115,-0.0113,-0.0553,-0.0414,-0.0621,-0.0822,-0.0917,-0.1017,-0.045,-0.046,-0.046,-0.046,-0.046,-0.046,0.0538,0.0593,0.067,0.0777,0.0867,0.0987,0.1082,0.1184,0.1307,0.14,0.1358,0.1356,0.093,0.0382,0.0049,-0.0545,-0.0572,-0.0726,-0.0863,-0.0944,-0.104,-0.0457,-0.0502,-0.0502,-0.0502,-0.0502,-0.0502,0,0.0617,0.0679,0.0781,0.0904,0.1019,0.1049,0.121,0.1314,0.1474,0.1569,0.1622,0.1428,0.0899,0.0336,-0.0453,-0.0892,-0.1071,-0.1155,-0.1305,-0.1344,-0.0837,-0.0853,-0.0947,-0.0947,-0.0946,-0.0946,-0.0946,-0.0946,0.0658,0.0768,0.0818,0.1013,0.1105,0.1265,0.1362,0.1512,0.1624,0.1749,0.1769,0.1743,0.1323,-0.0118,-0.1107,-0.1354,-0.1678,-0.1772,-0.1924,-0.1601,-0.1571,-0.1543,-0.1588,-0.1835,-0.1836,-0.2352,-0.2358,-0.2362]}],[{"header":{"parameterUnit":"m.s-1","parameterCategory":2,"la1":30.2991,"la2":30.254,"lo1":-89.0895,"lo2":-89.0444,"dy":0.0017,"dx":0.0017,"nx":28,"ny":28,"refTime":"2024-12-31T09:00:00:Z","depth":"2","parameterNumber":2,"parameterNumberName":"U-component_of_CURRENTS"},"data":[0,0,0,0,0,0,0,0,0,0,0,0,0,0,0,0,0,0,0,0,0,0,0,0,0,0,0,0,0,0,0,0,0,0,0,0,0,0,0,0,0,0,0,0,0,0,0,0,0,0,0,0,0,0,0,0,0,0,0.305,0.3051,0,0.3134,0.3134,0.3135,0.3159,0.3158,0.3158,0.3158,0.3167,0.3167,0.3168,0,0,0,0,0,0,0,0,0,0,0,0,0,0.2987,0.2987,0.3049,0.3051,0.3052,0.3134,0.3135,0.3136,0.3159,0.3158,0.3158,0.3158,0.3167,0.3167,0.3168,0,0,0,0,0,0,0,0,0,0,0,0,0,0.3035,0.2987,0.3049,0.3075,0.3078,0.3133,0.3135,0.3136,0.3159,0.3158,0.3158,0.3157,0.3167,0.3167,0.3168,0.3183,0,0,0.3171,0.3171,0,0,0,0,0,0,0,0,0.3032,0.3037,0.307,0.3073,0.3077,0.3137,0.3116,0.3148,0.3159,0.3126,0.3158,0.3157,0.3151,0.3153,0.3169,0.3183,0.3183,0.3171,0.3171,0.3172,0.3172,0,0,0,0,0,0,0,0.3029,0.3034,0.3081,0.3071,0.3075,0.3109,0.3114,0.3123,0.3138,0.3129,0.3131,0.3144,0.3152,0.3168,0.3169,0.3184,0.3171,0.3171,0.3172,0.3172,0.3242,0.3244,0,0,0,0,0,0,0.3018,0.303,0.3078,0.3084,0.3055,0.311,0.3116,0.3117,0.3139,0.3144,0.3144,0.3145,0.3167,0.3168,0.3169,0.3217,0.3171,0.3172,0.3173,0.3241,0.3243,0.3244,0,0,0,0,0,0,0.3016,0.3021,0.3075,0.3061,0.3071,0.3111,0.3112,0.3118,0.3142,0.3152,0.3154,0.3162,0.3167,0.3168,0.3189,0.3216,0.3173,0.3173,0.3239,0.3242,0.3243,0.3293,0,0,0,0,0,0,0.3014,0.302,0.3027,0.306,0.3071,0.3105,0.3113,0.3121,0.3151,0.3152,0.3168,0.3168,0.3166,0.3188,0.319,0.3217,0.3174,0.3238,0.324,0.3243,0.329,0.3297,0.3303,0,0,0,0,0,0.3011,0.3015,0.3026,0.3033,0.3075,0.3105,0.3114,0.3141,0.3152,0.3161,0.3179,0.3168,0.3206,0.3189,0.3191,0.3219,0.3236,0.324,0.3243,0.3287,0.3296,0.3303,0,0,0,0,0,0,0.2981,0.3019,0.3031,0.3043,0.3073,0.311,0.313,0.3148,0.3173,0.3178,0.3183,0.3185,0.3221,0.321,0.3192,0.3248,0.322,0.3224,0.3254,0.3261,0.3268,0.3284,0.3175,0,0,0,0,0,0.298,0.2995,0.3033,0.3041,0.3061,0.3099,0.312,0.3138,0.3163,0.3174,0.3188,0.3206,0.3236,0.3239,0.326,0.3279,0.3286,0.33,0.3306,0.3312,0.3327,0.3377,0.3389,0.3254,0.3254,0.3254,0,0,0.2965,0.2993,0.2998,0.3037,0.3067,0.31,0.311,0.3143,0.3172,0.317,0.3212,0.3233,0.325,0.3285,0.3299,0.3276,0.3348,0.3316,0.332,0.3333,0.3382,0.3395,0.3407,0.3257,0.3256,0.3256,0,0,0.2952,0.2976,0.2992,0.3023,0.3074,0.3104,0.3115,0.316,0.3184,0.3223,0.3243,0.328,0.3306,0.3332,0.3347,0.3399,0.3391,0.3403,0.3437,0.3485,0.3497,0.3507,0.3508,0.3518,0.3394,0.3394,0.3394,0,0.2937,0.2966,0.2999,0.3031,0.3066,0.3107,0.3138,0.3171,0.3215,0.3245,0.3238,0.3327,0.3334,0.3398,0.342,0.3415,0.3427,0.3404,0.3494,0.3505,0.3514,0.3513,0.3524,0.3397,0.3396,0.3396,0.3396,0,0.2943,0.2975,0.299,0.3049,0.3084,0.3118,0.3172,0.321,0.3248,0.3284,0.3358,0.3384,0.3434,0.3446,0.345,0.3529,0.351,0.3506,0.3474,0.3531,0.3525,0.3536,0.3401,0.34,0.3399,0.3398,0,0,0.2886,0.2979,0.2984,0.3019,0.3103,0.3125,0.3192,0.3263,0.3312,0.336,0.3425,0.3489,0.3513,0.3534,0.3548,0.3588,0.3657,0.3579,0.3581,0.3579,0.374,0.3701,0.3708,0.3676,0.3679,0.3681,0.3698,0,0.2888,0.2944,0.2999,0.3054,0.3092,0.3164,0.3219,0.3285,0.3351,0.3418,0.3474,0.3539,0.3542,0.3574,0.3621,0.366,0.3691,0.3651,0.3686,0.3686,0.3646,0.3722,0.3441,0.3433,0.3708,0.371,0.3711,0,0.2882,0.2925,0.2978,0.307,0.3094,0.3132,0.3239,0.3295,0.3406,0.3458,0.3543,0.3592,0.3674,0.3661,0.3757,0.3735,0.3748,0.3764,0.3765,0.3725,0.3669,0.3426,0.3441,0.3728,0.3727,0.3725,0.3724,0,0.2822,0.2911,0.2954,0.2983,0.3089,0.3129,0.3189,0.3301,0.3374,0.3488,0.3555,0.365,0.371,0.3761,0.3812,0.3793,0.3903,0.3868,0.3838,0.3832,0.3599,0.357,0.3936,0.3936,0.3936,0.3936,0.3936,0,0.2806,0.2837,0.2925,0.2945,0.3,0.3083,0.3161,0.3243,0.3376,0.3452,0.3566,0.3647,0.3749,0.3827,0.3841,0.3882,0.3925,0.3868,0.3856,0.3605,0.3578,0.384,0.3829,0.3936,0.3936,0.3936,0.3936,0,0.2737,0.2798,0.2846,0.2943,0.2973,0.3006,0.3145,0.3206,0.3339,0.3447,0.3491,0.3674,0.3768,0.385,0.3932,0.392,0.3951,0.3947,0.3632,0.3585,0.3827,0.3818,0.3904,0.3903,0.3902,0.3902,0.3901,0,0.2711,0.2727,0.2818,0.2842,0.2887,0.2955,0.3008,0.3162,0.3234,0.3445,0.3486,0.3654,0.3739,0.3865,0.3876,0.3897,0.395,0.3636,0.3561,0.3855,0.3835,0.3826,0.3819,0.3242,0.3236,0.3232,0.3228,0,0.2657,0.2688,0.2723,0.2773,0.2821,0.2875,0.296,0.3019,0.3183,0.3293,0.3428,0.3527,0.3677,0.3608,0.3677,0.3645,0.3613,0.3543,0.3941,0.3318,0.324,0.3217,0.3229,0.3185,0.319,0.3193,0.3195,0.3197,0.2607,0.2613,0.2657,0.2694,0.2743,0.2768,0.2774,0.2875,0.2969,0.3078,0.3246,0.3291,0.3364,0.3349,0.3267,0.3213,0.3456,0.3285,0.3295,0.3311,0.3256,0.3185,0.3106,0.3109,0.3112,0.3115,0.3117,0,0.2528,0.2546,0.2578,0.2606,0.2602,0.2666,0.2717,0.269,0.2726,0.2861,0.295,0.2773,0.2773,0.2833,0.2711,0.2746,0.2676,0.2615,0.2481,0.2528,0.2569,0.2471,0.2114,0.211,0.2107,0.2104,0,0,0.2488,0.2472,0.2485,0.2445,0.2462,0.241,0.2401,0.2388,0.2438,0.2427,0.2439,0.2655,0.2777,0.2398,0.2375,0.2216,0.2341,0.2135,0.2952,0.2844,0.2879,0.2986,0.2895,0,0,0,0,0]},{"header":{"parameterUnit":"m.s-1","parameterCategory":2,"la1":30.2991,"la2":30.254,"lo1":-89.0895,"lo2":-89.0444,"dy":0.0017,"dx":0.0017,"nx":28,"ny":28,"refTime":"2024-12-31T09:00:00:Z","depth":"2","parameterNumber":3,"parameterNumberName":"V-component_of_CURRENTS"},"data":[0,0,0,0,0,0,0,0,0,0,0,0,0,0,0,0,0,0,0,0,0,0,0,0,0,0,0,0,0,0,0,0,0,0,0,0,0,0,0,0,0,0,0,0,0,0,0,0,0,0,0,0,0,0,0,0,0,0,-0.0039,-0.004,0,-0.0135,-0.0136,-0.0137,-0.0193,-0.0193,-0.0193,-0.0193,-0.0278,-0.028,-0.0282,0,0,0,0,0,0,0,0,0,0,0,0,0,0.0006,0.0006,-0.0039,-0.004,-0.0041,-0.0134,-0.0136,-0.0137,-0.0193,-0.0193,-0.0193,-0.0193,-0.0277,-0.028,-0.0282,0,0,0,0,0,0,0,0,0,0,0,0,0,-0.0046,0.0006,-0.0039,-0.0079,-0.0083,-0.0134,-0.0136,-0.0138,-0.0193,-0.0193,-0.0193,-0.0193,-0.0276,-0.0279,-0.0283,-0.0303,0,0,-0.0293,-0.0294,0,0,0,0,0,0,0,0,-0.0042,-0.0048,-0.0072,-0.0076,-0.0081,-0.015,-0.0151,-0.0192,-0.0193,-0.0154,-0.0193,-0.0193,-0.0232,-0.0239,-0.0261,-0.0307,-0.031,-0.0293,-0.0295,-0.0297,-0.0298,0,0,0,0,0,0,0,-0.0039,-0.0044,-0.008,-0.0073,-0.0078,-0.0121,-0.0128,-0.0159,-0.0194,-0.0157,-0.0161,-0.0168,-0.0235,-0.0257,-0.0263,-0.0312,-0.0293,-0.0296,-0.0298,-0.0299,-0.0372,-0.0372,0,0,0,0,0,0,-0.0017,-0.004,-0.0077,-0.0082,-0.0059,-0.0121,-0.0129,-0.013,-0.0194,-0.0203,-0.0168,-0.017,-0.0252,-0.0259,-0.0266,-0.0267,-0.0297,-0.03,-0.0302,-0.0372,-0.0372,-0.0372,0,0,0,0,0,0,-0.0016,-0.0019,-0.0073,-0.0062,-0.0071,-0.0121,-0.0122,-0.0131,-0.0153,-0.0201,-0.021,-0.0178,-0.0252,-0.0261,-0.0284,-0.0272,-0.0301,-0.0304,-0.0372,-0.0372,-0.0372,-0.0286,0,0,0,0,0,0,-0.0014,-0.0018,-0.0019,-0.006,-0.0071,-0.0086,-0.0122,-0.0133,-0.0156,-0.016,-0.0213,-0.0221,-0.0253,-0.0278,-0.0287,-0.0277,-0.0307,-0.0373,-0.0372,-0.0372,-0.0289,-0.0283,-0.0278,0,0,0,0,0,-0.0012,-0.0004,-0.0018,-0.0023,-0.0068,-0.0085,-0.0095,-0.0133,-0.0156,-0.0155,-0.0193,-0.022,-0.0284,-0.0281,-0.0291,-0.0282,-0.0373,-0.0372,-0.0372,-0.0292,-0.0285,-0.0278,0,0,0,0,0,0,0.0017,-0.001,-0.0027,-0.0027,-0.0048,-0.0093,-0.0103,-0.0129,-0.0162,-0.0169,-0.0217,-0.0227,-0.0247,-0.0277,-0.0272,-0.0305,-0.0334,-0.0336,-0.0269,-0.0263,-0.0257,-0.0238,-0.031,0,0,0,0,0,0.0024,0.0022,-0.0008,-0.0007,-0.0017,-0.0061,-0.0077,-0.0099,-0.013,-0.0146,-0.0183,-0.0224,-0.0256,-0.0267,-0.0304,-0.0315,-0.0345,-0.0319,-0.0313,-0.0308,-0.03,-0.034,-0.0336,-0.0372,-0.0372,-0.0372,0,0,0.0035,0.002,0.0018,-0.0002,-0.0027,-0.0023,-0.0071,-0.0085,-0.0082,-0.0149,-0.0162,-0.0209,-0.0257,-0.0273,-0.0284,-0.0293,-0.0312,-0.0308,-0.0303,-0.0298,-0.0339,-0.0335,-0.0332,-0.0372,-0.0372,-0.0372,0,0,0.0069,0.0045,0.0058,0.0048,0.0024,0.0,0.0002,-0.0038,-0.0057,-0.0076,-0.0125,-0.0158,-0.0208,-0.0234,-0.0256,-0.0242,-0.0287,-0.026,-0.0207,-0.0244,-0.0241,-0.0239,-0.0259,-0.0259,-0.0249,-0.0249,-0.0249,0,0.0083,0.0097,0.006,0.0073,0.0073,0.002,0.0042,0.0015,-0.0026,-0.0034,-0.0067,-0.0144,-0.0188,-0.02,-0.02,-0.0227,-0.0254,-0.0223,-0.0235,-0.0234,-0.0233,-0.0254,-0.0255,-0.0245,-0.0245,-0.0246,-0.0246,0,0.0131,0.014,0.0148,0.0151,0.0145,0.0154,0.0123,0.0111,0.0074,0.0045,0.0012,-0.0056,-0.0096,-0.0121,-0.0159,-0.0171,-0.0193,-0.0227,-0.0245,-0.0224,-0.0248,-0.0251,-0.0239,-0.024,-0.0242,-0.0243,0,0,0.0175,0.0181,0.0186,0.0206,0.0189,0.0197,0.0199,0.0192,0.0201,0.0138,0.0142,0.0066,0.0018,-0.001,-0.0066,-0.0103,-0.0124,-0.0158,-0.0162,-0.0164,-0.0196,-0.0217,-0.0222,-0.0163,-0.0164,-0.0164,-0.0209,0,0.0226,0.0277,0.0261,0.0313,0.0338,0.0302,0.0316,0.03,0.0265,0.0252,0.0173,0.0145,0.0066,0.0044,-0.0005,-0.0096,-0.0131,-0.0108,-0.0228,-0.0231,-0.0242,-0.0226,-0.0201,-0.0241,-0.0213,-0.0213,-0.0214,0,0.0283,0.0311,0.037,0.0406,0.0414,0.0431,0.0447,0.0451,0.0414,0.0384,0.0334,0.0268,0.0209,0.0129,-0.0,0.0016,-0.0081,-0.0158,-0.0162,-0.0213,-0.0257,-0.0263,-0.0248,-0.0219,-0.0219,-0.0218,-0.0218,0,0.0345,0.0391,0.0444,0.0456,0.0481,0.0499,0.0505,0.0488,0.0514,0.0462,0.047,0.0373,0.0337,0.02,0.0037,0.0017,-0.011,-0.0155,-0.026,-0.0262,-0.0281,-0.0284,-0.0248,-0.0248,-0.0248,-0.0248,-0.0248,0,0.041,0.0454,0.0478,0.0507,0.058,0.0564,0.0626,0.061,0.0614,0.0657,0.0541,0.0554,0.0348,0.0251,0.0083,-0.0087,-0.0073,-0.0244,-0.0276,-0.025,-0.0249,-0.0269,-0.027,-0.025,-0.0249,-0.0249,-0.0249,0,0.047,0.0482,0.0549,0.0589,0.0609,0.0656,0.0718,0.0766,0.0743,0.0795,0.0788,0.07,0.0566,0.0364,0.0149,-0.0007,-0.0184,-0.0252,-0.0198,-0.0224,-0.032,-0.0317,-0.0364,-0.0365,-0.0366,-0.0367,-0.0367,0,0.0504,0.0545,0.0615,0.0665,0.0683,0.0753,0.0812,0.0825,0.0884,0.0893,0.0936,0.0828,0.0776,0.0461,0.0158,-0.0122,-0.0173,-0.0289,-0.0333,-0.0306,-0.0333,-0.0328,-0.0324,-0.0317,-0.0318,-0.0318,-0.0318,0,0.0574,0.0593,0.0651,0.0753,0.0823,0.0916,0.0995,0.1069,0.1092,0.1139,0.1177,0.1136,0.0836,0.0557,0.0161,-0.0038,-0.0246,-0.0302,-0.0287,-0.0293,-0.0267,-0.0291,-0.0288,-0.0319,-0.0319,-0.0319,-0.0319,-0.0319,0.0626,0.0679,0.0753,0.0855,0.0942,0.1056,0.1146,0.1238,0.1348,0.1411,0.1364,0.1299,0.0973,0.0474,0.0127,-0.0251,-0.0238,-0.0374,-0.0372,-0.037,-0.0358,-0.0335,-0.0397,-0.0397,-0.0397,-0.0397,-0.0397,0,0.0696,0.0756,0.0852,0.097,0.1078,0.1111,0.1262,0.1349,0.1484,0.1525,0.1547,0.1245,0.0924,0.0539,-0.0012,-0.0333,-0.0365,-0.0443,-0.0406,-0.0402,-0.0399,-0.0388,-0.0436,-0.0437,-0.0437,-0.0438,0,0,0.0733,0.0835,0.0884,0.1065,0.1153,0.1303,0.1393,0.1509,0.1573,0.1618,0.1579,0.1495,0.1037,0.064,0.0196,-0.0122,-0.0192,-0.0191,-0.0126,-0.0027,-0.002,-0.0326,-0.03,0,0,0,0,0]}],[{"header":{"parameterUnit":"m.s-1","parameterCategory":2,"la1":30.2991,"la2":30.254,"lo1":-89.0895,"lo2":-89.0444,"dy":0.0017,"dx":0.0017,"nx":28,"ny":28,"refTime":"2024-12-31T09:00:00:Z","depth":"4","parameterNumber":2,"parameterNumberName":"U-component_of_CURRENTS"},"data":[0,0,0,0,0,0,0,0,0,0,0,0,0,0,0,0,0,0,0,0,0,0,0,0,0,0,0,0,0,0,0,0,0,0,0,0,0,0,0,0,0,0,0,0,0,0,0,0,0,0,0,0,0,0,0,0,0,0,0.1842,0.1843,0,0.1902,0.1903,0.1903,0.1956,0.1957,0.1958,0.1959,0.2031,0.2032,0.2033,0,0,0,0,0,0,0,0,0,0,0,0,0,0.173,0.1732,0.1842,0.1843,0.1844,0.1902,0.1903,0.1903,0.1956,0.1957,0.1958,0.1959,0.2031,0.2032,0.2033,0,0,0,0,0,0,0,0,0,0,0,0,0,0.1781,0.1733,0.1842,0.1879,0.1883,0.1902,0.1903,0.1903,0.1956,0.1957,0.1958,0.196,0.203,0.2032,0.2034,0.2019,0,0,0.2039,0.204,0,0,0,0,0,0,0,0,0.1778,0.1785,0.1873,0.1877,0.1881,0.1925,0.189,0.1944,0.1956,0.1926,0.1959,0.196,0.1997,0.2002,0.2007,0.2022,0.2025,0.2039,0.204,0.2041,0.2041,0,0,0,0,0,0,0,0.1775,0.1782,0.1864,0.1874,0.1879,0.1878,0.1887,0.19,0.1952,0.1929,0.1933,0.1943,0.2,0.2005,0.2009,0.2027,0.2039,0.204,0.2041,0.2042,0.216,0.2162,0,0,0,0,0,0,0.1773,0.1779,0.1862,0.1866,0.1835,0.188,0.1889,0.1908,0.1952,0.1961,0.1942,0.1945,0.2001,0.2007,0.2012,0.2103,0.2041,0.2042,0.2043,0.2158,0.2161,0.2163,0,0,0,0,0,0,0.1771,0.178,0.1859,0.1825,0.1835,0.1881,0.1901,0.1908,0.1957,0.1963,0.1971,0.1988,0.2003,0.2009,0.2058,0.2103,0.2043,0.2045,0.2155,0.2159,0.2162,0.2219,0,0,0,0,0,0,0.1767,0.1779,0.1811,0.1825,0.1838,0.1899,0.19,0.1909,0.196,0.1966,0.2004,0.201,0.2004,0.2056,0.206,0.2104,0.2046,0.2153,0.2157,0.2161,0.2214,0.2223,0.2231,0,0,0,0,0,0.1763,0.1793,0.1812,0.1823,0.1873,0.1901,0.1908,0.1941,0.1961,0.1989,0.2015,0.2011,0.2084,0.2058,0.2063,0.2109,0.2151,0.2156,0.216,0.221,0.2221,0.2231,0,0,0,0,0,0,0.1765,0.1802,0.1823,0.1866,0.1897,0.1912,0.1945,0.1965,0.2006,0.2025,0.2029,0.2036,0.2096,0.2096,0.2068,0.2156,0.2121,0.2127,0.2157,0.2168,0.2176,0.2186,0.2047,0,0,0,0,0,0.1779,0.1815,0.1843,0.1884,0.1903,0.1932,0.1956,0.198,0.2008,0.203,0.2057,0.2088,0.2111,0.2136,0.2155,0.2199,0.2209,0.2236,0.2245,0.2252,0.2264,0.2305,0.2318,0.2178,0.2178,0.2178,0,0,0.1794,0.1819,0.1843,0.1888,0.1916,0.1946,0.1951,0.2,0.2035,0.203,0.21,0.2119,0.213,0.2179,0.2208,0.2191,0.2301,0.2258,0.2263,0.2273,0.2311,0.2324,0.2336,0.2182,0.2181,0.218,0,0,0.182,0.1864,0.1896,0.1923,0.1972,0.1987,0.2012,0.2054,0.2089,0.2145,0.2152,0.22,0.2244,0.2258,0.2268,0.2338,0.2342,0.2356,0.2411,0.245,0.2461,0.2471,0.2515,0.2529,0.2364,0.2364,0.2364,0,0.184,0.188,0.191,0.1941,0.1971,0.201,0.2046,0.208,0.2138,0.2172,0.2183,0.2267,0.2278,0.233,0.2358,0.2357,0.2384,0.2365,0.246,0.247,0.2479,0.2522,0.2536,0.2367,0.2367,0.2366,0.2366,0,0.1868,0.1918,0.194,0.1992,0.2028,0.2069,0.2111,0.2168,0.2218,0.2248,0.2332,0.2353,0.2406,0.2419,0.2411,0.2489,0.2489,0.2461,0.2429,0.2497,0.2537,0.2551,0.2372,0.2371,0.237,0.2369,0,0,0.1861,0.1945,0.1957,0.1991,0.206,0.2086,0.216,0.2224,0.228,0.2349,0.2421,0.2472,0.2503,0.2517,0.2524,0.2561,0.2651,0.2552,0.2552,0.2588,0.2756,0.258,0.2578,0.2643,0.2645,0.2647,0.2762,0,0.1877,0.1939,0.1981,0.205,0.2083,0.2148,0.2205,0.2274,0.2341,0.2421,0.2471,0.254,0.2533,0.2575,0.2614,0.2642,0.2689,0.2623,0.2692,0.2695,0.2523,0.2588,0.2655,0.2772,0.2776,0.2778,0.2779,0,0.1874,0.192,0.199,0.2078,0.2101,0.2154,0.2259,0.2319,0.2429,0.2485,0.2572,0.2615,0.2704,0.2678,0.2779,0.2744,0.2767,0.2779,0.2783,0.2606,0.2543,0.2689,0.2804,0.2802,0.28,0.2799,0.2797,0,0.1821,0.192,0.1979,0.2009,0.2114,0.2174,0.2241,0.2347,0.2416,0.2543,0.2617,0.2706,0.2783,0.2825,0.2873,0.2843,0.2969,0.292,0.2786,0.2775,0.2873,0.2861,0.2991,0.299,0.299,0.299,0.2989,0,0.179,0.1841,0.1968,0.1996,0.2076,0.2161,0.2258,0.2339,0.2469,0.2542,0.2657,0.2724,0.2828,0.2908,0.2919,0.2901,0.3013,0.281,0.2791,0.2897,0.2886,0.2884,0.287,0.2994,0.2993,0.2992,0.2992,0,0.1712,0.1798,0.187,0.2003,0.2053,0.2112,0.227,0.233,0.2472,0.258,0.2634,0.2788,0.2872,0.2954,0.3031,0.295,0.2949,0.2915,0.3056,0.304,0.2721,0.271,0.2766,0.2761,0.2757,0.2753,0.275,0,0.1674,0.1707,0.1861,0.191,0.198,0.2088,0.2156,0.2313,0.2374,0.2582,0.2615,0.2775,0.2847,0.2832,0.2916,0.2933,0.2893,0.2885,0.2766,0.2722,0.2699,0.2694,0.2689,0.2743,0.2742,0.274,0.2739,0,0.1596,0.1671,0.1733,0.1837,0.1924,0.2002,0.2114,0.215,0.2316,0.2478,0.2531,0.2579,0.2672,0.2712,0.2761,0.2758,0.2876,0.2837,0.2844,0.2732,0.2694,0.2674,0.2674,0.2724,0.2726,0.2727,0.2728,0,0.1545,0.1567,0.1663,0.1739,0.1842,0.1878,0.1953,0.2022,0.2108,0.2326,0.2334,0.2492,0.2636,0.2624,0.266,0.2654,0.2598,0.2499,0.2523,0.2541,0.241,0.2324,0.2235,0,0,0,0,0,0.1478,0.1491,0.1554,0.1624,0.1719,0.1776,0.1905,0.1979,0.2144,0.2122,0.222,0.2284,0.2336,0.2421,0.2367,0.2562,0.2613,0.2488,0.2513,0.2637,0.2655,0.2518,0,0,0,0,0,0,0.1431,0.1485,0.1508,0.1513,0.1537,0.1619,0.1692,0.1803,0.1795,0.1972,0.2011,0.2147,0.2233,0.2341,0.2323,0.2348,0.2317,0.2591,0.2585,0.2627,0.2644,0.2658,0.2523,0,0,0,0,0]},{"header":{"parameterUnit":"m.s-1","parameterCategory":2,"la1":30.2991,"la2":30.254,"lo1":-89.0895,"lo2":-89.0444,"dy":0.0017,"dx":0.0017,"nx":28,"ny":28,"refTime":"2024-12-31T09:00:00:Z","depth":"4","parameterNumber":3,"parameterNumberName":"V-component_of_CURRENTS"},"data":[0,0,0,0,0,0,0,0,0,0,0,0,0,0,0,0,0,0,0,0,0,0,0,0,0,0,0,0,0,0,0,0,0,0,0,0,0,0,0,0,0,0,0,0,0,0,0,0,0,0,0,0,0,0,0,0,0,0,0.0187,0.0187,0,0.0153,0.0152,0.0152,0.0131,0.0131,0.0131,0.0131,0.009,0.0089,0.0088,0,0,0,0,0,0,0,0,0,0,0,0,0,0.0216,0.0215,0.0187,0.0187,0.0187,0.0153,0.0152,0.0152,0.0131,0.0131,0.0131,0.0131,0.0091,0.0089,0.0088,0,0,0,0,0,0,0,0,0,0,0,0,0,0.0194,0.0215,0.0187,0.0173,0.0171,0.0153,0.0152,0.0152,0.0131,0.0131,0.0131,0.0131,0.0091,0.0089,0.0088,0.008,0,0,0.0083,0.0082,0,0,0,0,0,0,0,0,0.0195,0.0193,0.0175,0.0174,0.0172,0.0147,0.0147,0.0127,0.0131,0.0146,0.0131,0.0131,0.0109,0.0106,0.0099,0.0078,0.0076,0.0083,0.0082,0.0081,0.0081,0,0,0,0,0,0,0,0.0197,0.0194,0.0173,0.0175,0.0173,0.0161,0.0158,0.0143,0.0128,0.0145,0.0143,0.014,0.0108,0.0101,0.0098,0.0076,0.0083,0.0082,0.0081,0.008,0.0048,0.0048,0,0,0,0,0,0,0.0203,0.0196,0.0174,0.0172,0.0184,0.016,0.0157,0.0154,0.0128,0.0124,0.014,0.0139,0.0103,0.01,0.0096,0.0103,0.0081,0.008,0.0079,0.0047,0.0048,0.0048,0,0,0,0,0,0,0.0204,0.0201,0.0176,0.0183,0.0179,0.016,0.0157,0.0154,0.0148,0.0125,0.0121,0.0138,0.0103,0.0099,0.0095,0.0101,0.0079,0.0078,0.0047,0.0047,0.0048,0.0105,0,0,0,0,0,0,0.0205,0.0202,0.0202,0.0184,0.0179,0.0171,0.0157,0.0153,0.0146,0.0145,0.0122,0.0118,0.0103,0.0098,0.0094,0.0098,0.0077,0.0047,0.0047,0.0048,0.0103,0.0107,0.0111,0,0,0,0,0,0.0206,0.0209,0.0202,0.02,0.018,0.0171,0.0168,0.0153,0.0147,0.0147,0.0138,0.0119,0.0095,0.0097,0.0092,0.0096,0.0047,0.0047,0.0048,0.0101,0.0106,0.011,0,0,0,0,0,0,0.0219,0.0206,0.0199,0.0197,0.0187,0.0168,0.0167,0.0156,0.0148,0.0147,0.0126,0.0122,0.0119,0.0098,0.0101,0.0085,0.0065,0.0064,0.0108,0.0112,0.0116,0.0128,0.0075,0,0,0,0,0,0.0223,0.0223,0.0207,0.0206,0.0203,0.0185,0.0179,0.017,0.0159,0.0155,0.014,0.0123,0.0115,0.0108,0.0094,0.0088,0.0056,0.0084,0.0088,0.0091,0.0097,0.0059,0.006,0.0048,0.0048,0.0048,0,0,0.0226,0.0221,0.022,0.0209,0.02,0.0207,0.0182,0.0176,0.0184,0.0152,0.0157,0.0138,0.0116,0.0114,0.0109,0.0099,0.0075,0.0091,0.0095,0.0098,0.0059,0.006,0.0061,0.0048,0.0048,0.0048,0,0,0.0242,0.0231,0.024,0.0237,0.0228,0.022,0.0221,0.0204,0.0199,0.0199,0.018,0.0167,0.0149,0.0137,0.0128,0.0142,0.0098,0.0131,0.016,0.0123,0.0124,0.0125,0.0078,0.0074,0.0131,0.0132,0.0132,0,0.0247,0.026,0.024,0.0253,0.0259,0.0231,0.0249,0.0239,0.0224,0.0224,0.0208,0.0183,0.0161,0.0163,0.0167,0.0151,0.0119,0.0149,0.0129,0.0129,0.0128,0.008,0.0075,0.0134,0.0134,0.0134,0.0133,0,0.0274,0.0286,0.0292,0.0303,0.0305,0.0313,0.0302,0.03,0.0287,0.0275,0.0268,0.0235,0.0221,0.0207,0.0193,0.0181,0.0155,0.0141,0.0122,0.0133,0.0081,0.0075,0.0138,0.0137,0.0136,0.0136,0,0,0.0286,0.0308,0.0312,0.0335,0.0335,0.0343,0.0354,0.0358,0.0371,0.0339,0.0347,0.0319,0.0291,0.0279,0.0249,0.0215,0.0178,0.018,0.0177,0.0141,0.0087,0.0071,0.0062,0.0161,0.016,0.016,0.005,0,0.0317,0.036,0.036,0.0405,0.0428,0.0416,0.0434,0.0431,0.0417,0.0414,0.0369,0.0363,0.0321,0.0314,0.0274,0.0207,0.0164,0.0208,0.0075,0.0071,0.0062,0.0056,0.0158,0.0045,0.0043,0.0042,0.0041,0,0.035,0.0377,0.0427,0.047,0.0479,0.05,0.0526,0.0536,0.0519,0.0504,0.0477,0.044,0.0394,0.0352,0.0235,0.0265,0.0182,0.012,0.0114,0.0077,0.0044,0.003,0.0028,0.0029,0.003,0.0031,0.0032,0,0.0381,0.0428,0.0475,0.0489,0.0525,0.0548,0.0565,0.0564,0.0587,0.0558,0.0563,0.0494,0.0464,0.0356,0.023,0.023,0.009,0.0072,-0.0025,-0.0028,-0.0006,-0.0005,-0.0018,-0.0018,-0.0017,-0.0017,-0.0017,0,0.0417,0.0456,0.0496,0.0522,0.0586,0.0591,0.0647,0.0645,0.0655,0.0684,0.0613,0.0609,0.0465,0.0371,0.0244,0.009,0.0095,-0.0022,-0.0055,0.0019,0.0024,-0.0012,-0.001,-0.0021,-0.002,-0.0019,-0.0019,0,0.0443,0.0466,0.0526,0.0578,0.0603,0.0645,0.0713,0.075,0.0744,0.0774,0.0771,0.0694,0.0564,0.041,0.0226,0.0116,-0.0034,-0.0093,-0.0007,-0.0033,-0.0135,-0.0129,-0.0214,-0.0216,-0.0217,-0.0218,-0.0219,0,0.0458,0.0492,0.057,0.0613,0.064,0.0709,0.0762,0.079,0.0827,0.0825,0.084,0.0738,0.0662,0.0394,0.0219,-0.0034,-0.0069,-0.0157,-0.0144,-0.0131,-0.0155,-0.0146,-0.0139,-0.0221,-0.0221,-0.0221,-0.0222,0,0.0489,0.0516,0.0566,0.0656,0.0722,0.0802,0.0871,0.0908,0.0934,0.0939,0.0896,0.076,0.061,0.0398,0.02,0.002,-0.0104,-0.0171,-0.0169,-0.0158,-0.014,-0.016,-0.0151,-0.0226,-0.0225,-0.0225,-0.0225,0,0.0512,0.0549,0.0615,0.0695,0.0782,0.0858,0.0898,0.094,0.0977,0.0968,0.0951,0.0788,0.0696,0.0425,0.0245,0.0064,0.0014,-0.0051,-0.0057,-0.0055,0.0024,0.0072,0.0023,0,0,0,0,0,0.0531,0.0574,0.0649,0.0734,0.0822,0.0874,0.0957,0.0987,0.1017,0.0997,0.0976,0.0835,0.0566,0.0453,0.027,0.0208,-0.0027,-0.0016,-0.0106,-0.0249,-0.0244,-0.018,0,0,0,0,0,0,0.054,0.0611,0.0646,0.0752,0.0816,0.0916,0.097,0.0994,0.098,0.0979,0.0845,0.078,0.0524,0.0675,0.0265,0.021,0.0124,-0.0137,-0.0141,-0.0251,-0.0247,-0.0243,-0.0176,0,0,0,0,0]}]]